Weather in Lysyanka

Ukraine / Cherkassi District     49˚15′24″N   30˚49′24″E
temp.,
°C
wind,
m/s
gust,
m/s
humid.,
%
clouds,
%
prec.,
mm/h
press.,
hPa
HPBL,
m
2 december, wed
wed223:00ene3697100 0.3 1027365
02:00ene2498100 0.6 1027256
05:00ene3497100 0.4 1026274
08:00ene2493100 0.6 1027312
11:00+1˚ene239499 0.1 1028263
14:00+1˚ese2396100 0.3 1026178
17:00se2497100 0.4 1027205
20:00se3597100 0.7 1027318
3 december, thu
thu323:00se3690100 0.1 1027378
02:00−2˚se239697 0.1 102792
05:00−1˚ese2496100 0.0 1026183
08:00se359299 0.0 1026289
11:00+1˚ese3489100 0.0 1026274
14:00+2˚ese4788100 0.0 1025339
17:00+2˚ese489498 0.0 1024343
20:00+3˚se5109599 0.2 1023421
4 december, fri
fri423:00+3˚se5109596 0.0 1023445
02:00+4˚se599498 0.0 1023343
05:00+4˚se51192100 0.0 1022600
08:00+4˚se61094100 0.1 1023485
11:00+4˚se5989100 0.0 1023461
14:00+6˚se6108186 0.0 1023456
17:00+3˚ese6129124 0.0 1023428
20:00+3˚se7119160 0.0 1024562
5 december, sat
sat523:00+4˚se61087100 0.0 1025628
02:00+3˚se61086100 0.0 1026626
05:00+2˚se61087100 0.0 1025583
08:00+2˚se61088100 0.0 1027618
11:00+2˚se6983100 0.0 1027622
14:00+2˚ese687896 0.0 1027525
17:00+1˚ese5108375 0.0 1028488
20:00ese5128341 0.0 1029519
6 december, sun
sun623:00−1˚ese512830 0.0 1029498
02:00−1˚ese511750 0.0 1029461
05:00−2˚ese510650 0.0 1030436
08:00−3˚ese510640 0.0 1030445
11:00−1˚ese69560 0.0 1030535
14:00+1˚ese610550 0.0 1029595
17:00−2˚ese512640 0.0 1029459
20:00−2˚ese613550 0.0 1030481